Weather History for Winfield, KS

Change the Weather History Date:

Tuesday, March 11, 2014

  Actual Average Record
Temperature  
Mean Temperature 62 °F -  
Max Temperature 79 °F 53 °F 79 °F (2014)
Min Temperature 42 °F 31 °F 12 °F (1998)
Degree Days  
Heating Degree Days 4    
Growing Degree Days 12 (Base 50)    
Moisture  
Dew Point 41 °F    
Average Humidity 54    
Maximum Humidity 83    
Minimum Humidity 29    
Precipitation  
Precipitation 0.00 in - - ()
Sea Level Pressure  
Sea Level Pressure 29.61 in    
Wind  
Wind Speed 20 mph (SW)    
Max Wind Speed 39 mph    
Max Gust Speed 48 mph    
Visibility 10 miles    
Events      
Averages and records for this station are not official NWS values.
T = Trace of Precipitation, MM = Missing Value Source: NWS Daily Summary

Daily Weather History Graph

Daily Weather History Graph

Search for Another Location

Airport:

Trip Planner

Search our weather history database for the weather conditions in past years. The results will help you decide how hot, cold, wet, or windy it might be!

Date:

Astronomy

Mar. 11, 2014 Rise Set
Actual Time 7:44 AM CDT 7:31 PM CDT
Civil Twilight 7:19 AM CDT 7:57 PM CDT
Nautical Twilight 6:48 AM CDT 8:27 PM CDT
Astronomical Twilight 6:18 AM CDT 8:58 PM CDT
Moon 3:13 PM CDT (3/11) 4:34 AM CDT (3/11)
Length of Visible Light 12h 38m
Length of Day
11h 46m
Waxing Gibbous, 78% of the Moon is Illuminated
Mar 11
Waxing Gibbous
Mar 16
Full
Mar 23
Last Quarter
Mar 30
New
Apr 7
First Quarter

Hourly Weather History & Observations

Time (CDT) Temp. Windchill Dew Point Humidity Pressure Visibility Wind Dir Wind Speed Gust Speed Precip Events Conditions
12:54 AM 55.9 °F - 33.1 °F 42% 29.68 in 10.0 mi South 12.7 mph - N/A   Clear
1:54 AM 54.0 °F - 35.1 °F 49% 29.65 in 10.0 mi South 13.8 mph - N/A   Clear
2:54 AM 55.9 °F - 39.0 °F 53% 29.62 in 10.0 mi South 15.0 mph - N/A   Clear
3:54 AM 57.0 °F - 42.1 °F 57% 29.58 in 10.0 mi South 16.1 mph - N/A   Clear
4:54 AM 55.9 °F - 45.0 °F 67% 29.55 in 10.0 mi South 15.0 mph - N/A   Clear
5:54 AM 53.1 °F - 45.0 °F 74% 29.55 in 10.0 mi South 12.7 mph - N/A   Clear
6:54 AM 54.0 °F - 46.9 °F 77% 29.53 in 10.0 mi South 16.1 mph - N/A   Clear
7:54 AM 53.1 °F - 48.0 °F 83% 29.52 in 10.0 mi South 16.1 mph - N/A   Clear
8:54 AM 57.0 °F - 50.0 °F 77% 29.51 in 10.0 mi South 13.8 mph - N/A   Clear
9:54 AM 63.0 °F - 51.1 °F 65% 29.49 in 10.0 mi South 19.6 mph 27.6 mph N/A   Clear
10:54 AM 68.0 °F - 51.1 °F 55% 29.46 in 10.0 mi South 18.4 mph 31.1 mph N/A   Clear
11:54 AM 73.0 °F - 50.0 °F 44% 29.44 in 10.0 mi SSW 25.3 mph 36.8 mph N/A   Clear
12:54 PM 75.9 °F - 48.0 °F 37% 29.42 in 10.0 mi SSW 27.6 mph 39.1 mph N/A   Clear
1:54 PM 79.0 °F - 46.9 °F 32% 29.41 in 10.0 mi SW 26.5 mph 38.0 mph N/A   Clear
2:54 PM 77.0 °F - 44.1 °F 31% 29.41 in 10.0 mi SW 20.7 mph 31.1 mph N/A   Clear
3:54 PM 75.9 °F - 41.0 °F 29% 29.43 in 10.0 mi West 17.3 mph 27.6 mph N/A   Clear
4:26 PM 64.9 °F - 36.0 °F 34% 29.50 in 10.0 mi NW 33.4 mph 43.7 mph N/A   Clear
4:54 PM 63.0 °F - 36.0 °F 37% 29.51 in 10.0 mi NNW 32.2 mph 41.4 mph N/A   Clear
5:54 PM 62.1 °F - 37.0 °F 39% 29.57 in 10.0 mi NNW 31.1 mph 39.1 mph N/A   Clear
6:54 PM 55.9 °F - 35.1 °F 45% 29.65 in 10.0 mi NNW 27.6 mph 41.4 mph N/A   Clear
7:54 PM 51.1 °F - 35.1 °F 54% 29.74 in 10.0 mi NNW 33.4 mph 48.3 mph N/A   Clear
8:54 PM 48.9 °F - 36.0 °F 61% 29.81 in 10.0 mi North 39.1 mph 47.2 mph N/A   Overcast
9:54 PM 46.9 °F - 35.1 °F 63% 29.88 in 10.0 mi North 34.5 mph 47.2 mph N/A   Overcast
10:34 PM 45.0 °F 34.6 °F 35.1 °F 68% 29.95 in 10.0 mi North 34.5 mph 43.7 mph N/A   Overcast
10:54 PM 44.1 °F 32.9 °F 34.0 °F 68% 29.96 in 10.0 mi North 38.0 mph 46.0 mph N/A   Overcast
11:54 PM 42.1 °F 31.5 °F 33.1 °F 70% 30.02 in 10.0 mi North 28.8 mph 36.8 mph N/A   Overcast